This is the latest recevied weather packets stored in our database for station/object W5XN. If no packets are shown the sender has not sent any weather packets the latest 1 day(s).
| Time | Temp. | Humidity | Pressure | Rain* | Wind** | Luminosity | Snow |
|---|---|---|---|---|---|---|---|
| 1778077382 | 21.67° C | 94% | 1011.8 hPa | 0 mm | - | 169 W/m² | - |
| 1778077080 | 21.11° C | 95% | 1011.8 hPa | 0 mm | - | 144 W/m² | - |
| 1778076778 | 21.11° C | 94% | 1012.1 hPa | 0 mm | - | 84 W/m² | - |
| 1778076172 | 21.11° C | 95% | 1012.2 hPa | 0 mm | - | 83 W/m² | - |
| 1778075869 | 21.11° C | 95% | 1011.9 hPa | 0 mm | - | 113 W/m² | - |
| 1778075565 | 21.11° C | 95% | 1012.2 hPa | 0 mm | - | 99 W/m² | - |
| 1778075262 | 21.11° C | 95% | 1012.2 hPa | 0 mm | - | 75 W/m² | - |
| 1778074656 | 21.11° C | 95% | 1012.2 hPa | 0 mm | - | 77 W/m² | - |
| 1778073140 | 21.11° C | 95% | 1012.2 hPa | 0 mm | - | 63 W/m² | - |
| 1778072837 | 21.11° C | 95% | 1012.2 hPa | 0 mm | - | 45 W/m² | - |
| 1778072534 | 20.56° C | 95% | 1012.1 hPa | 0 mm | - | 75 W/m² | - |
| 1778072232 | 20.56° C | 95% | 1012.4 hPa | 0 mm | - | 84 W/m² | - |
| 1778069813 | 20° C | 96% | 1012.2 hPa | 0 mm | - | 75 W/m² | - |
| 1778068904 | 19.44° C | 96% | 1012.1 hPa | 0 mm | - | 39 W/m² | - |
| 1778067997 | 19.44° C | 96% | 1011.7 hPa | 0 mm | - | 18 W/m² | - |
| 1778067695 | 19.44° C | 96% | 1011.4 hPa | 0 mm | - | 19 W/m² | - |
| 1778067090 | 18.89° C | 96% | 1011.4 hPa | 0 mm | - | 9 W/m² | - |
| 1778066484 | 18.89° C | 96% | 1010.9 hPa | 0 mm | - | 5 W/m² | - |
| 1778065879 | 18.89° C | 96% | 1011 hPa | 0 mm | - | 3 W/m² | - |
| 1778065576 | 18.89° C | 96% | 1010.8 hPa | 0 mm | - | 1 W/m² | - |
| 1778065274 | 19.44° C | 96% | 1010.8 hPa | 0 mm | - | 0 W/m² | - |
| 1778064970 | 19.44° C | 96% | 1010.5 hPa | 0 mm | - | 0 W/m² | - |
| 1778064667 | 19.44° C | 96% | 1010.7 hPa | 0 mm | - | 0 W/m² | - |
| 1778063456 | 20° C | 95% | 1010.4 hPa | 0 mm | - | 0 W/m² | - |
| 1778062548 | 20° C | 95% | 1010.6 hPa | 0 mm | - | 0 W/m² | - |
* Rain latest hour (hover to see other rain measurements)
** Current wind speed in m/s (hover to see current wind gust speed)